FW6209 Weather Reports


time (UTC)temp
C
wind
direction
speed
KPH
gust
KPH
rain 1hr
cm
rain 24hr
cm
rain mn
cm
humidity
%
barometer
mb
20260507161612 18 15 0.0 0.0 0.00 0.00 0.00 70 1015.6
20260507161105 18 322 0.0 0.0 0.00 0.00 0.00 71 1015.6
20260507160826 18 290 0.0 0.0 0.00 0.00 0.00 72 1015.6
20260507160053 18 271 0.0 0.0 0.00 0.00 0.00 71 1015.6
20260507155548 18 18 0.0 0.0 0.00 0.00 0.00 71 1015.6
20260507155041 18 347 0.0 0.0 0.00 0.00 0.00 71 1015.6
20260507154537 17 17 0.0 0.0 0.00 0.00 0.00 72 1015.8
20260507154029 17 17 0.0 0.0 0.00 0.00 0.00 72 1015.6
20260507153524 17 323 0.0 0.0 0.00 0.00 0.00 72 1015.6
20260507153017 17 267 0.0 0.0 0.00 0.00 0.00 72 1015.6
20260507152733 17 295 0.0 0.0 0.00 0.00 0.00 71 1015.6
20260507152231 17 92 0.0 0.0 0.00 0.00 0.00 73 1015.9
20260507151500 17 284 0.0 0.0 0.00 0.00 0.00 74 1015.8
20260507150953 17 236 0.0 0.0 0.00 0.00 0.00 74 1015.8
20260507150447 17 13 0.0 0.0 0.00 0.00 0.00 75 1015.6
20260507145942 16 13 0.0 0.0 0.00 0.00 0.00 77 1015.6
20260507145435 16 349 0.0 0.0 0.00 0.00 0.00 79 1015.5
20260507144930 15 186 0.0 0.0 0.00 0.00 0.00 82 1015.4
20260507144423 15 186 0.0 0.0 0.00 0.00 0.00 83 1015.5
20260507143917 15 182 0.0 0.0 0.00 0.00 0.00 85 1015.4
20260507143411 14 175 0.0 0.0 0.00 0.00 0.00 86 1015.3
20260507142906 13 159 0.0 0.0 0.00 0.00 0.00 86 1015.3
20260507142359 13 162 0.0 0.0 0.00 0.00 0.00 86 1015.2
20260507142120 13 162 0.0 0.0 0.00 0.00 0.00 88 1015.2
20260507141347 13 173 0.0 0.0 0.00 0.00 0.00 89 1015.2
20260507140842 13 181 0.0 0.0 0.00 0.00 0.00 90 1015.2
20260507140335 12 188 0.0 0.0 0.00 0.00 0.00 90 1015.2
20260507135829 12 202 0.0 0.0 0.00 0.00 0.00 91 1015.1
20260507135323 12 173 0.0 0.0 0.00 0.00 0.00 91 1015.0
20260507135042 12 169 0.0 0.0 0.00 0.00 0.00 91 1015.0
20260507134311 12 182 0.0 0.0 0.00 0.00 0.00 91 1015.1
20260507133806 12 188 0.0 0.0 0.00 0.00 0.00 91 1015.1
20260507133259 12 178 0.0 0.0 0.00 0.00 0.00 92 1015.1
20260507132753 11 171 0.0 0.0 0.00 0.00 0.00 91 1014.9
20260507132247 11 164 0.0 0.0 0.00 0.00 0.00 91 1015.0
20260507131741 11 173 0.0 0.0 0.00 0.00 0.00 91 1015.0
20260507131236 11 187 0.0 0.0 0.00 0.00 0.00 91 1015.0
20260507130729 11 207 0.0 0.0 0.00 0.00 0.00 90 1014.9
20260507130224 11 188 0.0 0.0 0.00 0.00 0.00 90 1014.8
20260507125717 11 184 0.0 0.0 0.00 0.00 0.00 90 1014.8
20260507125211 11 184 0.0 0.0 0.00 0.00 0.00 91 1014.8
20260507124705 11 180 0.0 0.0 0.00 0.00 0.00 91 1014.7
20260507124159 11 190 0.0 0.0 0.00 0.00 0.00 91 1014.7
20260507123653 11 196 0.0 0.0 0.00 0.00 0.00 91 1014.6
20260507123147 11 188 0.0 0.0 0.00 0.00 0.00 91 1014.6
20260507122641 11 207 0.0 0.0 0.00 0.00 0.00 91 1014.6
20260507122135 11 219 0.0 0.0 0.00 0.00 0.00 91 1014.7
20260507121854 11 232 0.0 0.0 0.00 0.00 0.00 90 1014.7
20260507121123 11 232 0.0 0.0 0.00 0.00 0.00 90 1014.7
20260507120617 11 232 0.0 0.0 0.00 0.00 0.00 90 1014.6
20260507120111 11 232 0.0 0.0 0.00 0.00 0.00 89 1014.5
20260507115605 11 232 0.0 0.0 0.00 0.00 0.00 89 1014.7
20260507115059 11 232 0.0 0.0 0.00 0.00 0.00 88 1014.7
20260507114825 11 232 0.0 0.0 0.00 0.00 0.00 88 1014.6
20260507114047 11 232 0.0 0.0 0.00 0.00 0.00 88 1014.5
20260507113541 12 232 0.0 0.0 0.00 0.00 0.00 88 1014.6
20260507113035 12 232 0.0 0.0 0.00 0.00 0.00 88 1014.8
20260507112529 12 232 0.0 0.0 0.00 0.00 0.00 88 1014.7
20260507112023 11 232 0.0 0.0 0.00 0.00 0.00 88 1014.9
20260507111739 11 217 0.0 0.0 0.00 0.00 0.00 88 1014.9
20260507111011 11 217 0.0 0.0 0.00 0.00 0.00 87 1014.9
20260507110505 11 217 0.0 0.0 0.00 0.00 0.00 87 1014.8
20260507110223 11 217 0.0 0.0 0.00 0.00 0.00 88 1014.9
20260507105453 11 217 0.0 0.0 0.00 0.00 0.00 88 1015.0
20260507104947 11 217 0.0 0.0 0.00 0.00 0.00 88 1014.9
20260507104441 11 217 0.0 0.0 0.00 0.00 0.00 88 1015.0
20260507103936 11 217 0.0 0.0 0.00 0.00 0.00 89 1015.0
20260507103430 11 217 0.0 0.0 0.00 0.00 0.00 89 1015.0
20260507102923 11 217 0.0 0.0 0.00 0.00 0.00 89 1015.0
20260507102417 12 217 0.0 0.0 0.00 0.00 0.00 90 1015.0
20260507101911 12 175 0.0 0.0 0.00 0.00 0.00 90 1015.2
20260507101624 12 175 0.0 0.0 0.00 0.00 0.00 90 1015.2
20260507100859 12 175 0.0 0.0 0.00 0.00 0.00 90 1015.3
20260507100353 12 175 0.0 0.0 0.00 0.00 0.00 90 1015.1
20260507095847 12 181 0.0 0.0 0.00 0.00 0.00 90 1015.1
20260507095342 12 181 0.0 0.0 0.00 0.00 0.00 89 1015.0
20260507094835 12 175 0.0 0.0 0.00 0.00 0.00 88 1015.2
20260507094823 12 178 0.0 0.0 0.00 0.00 0.00 88 1015.3
20260507093823 12 178 0.0 0.0 0.00 0.00 0.00 87 1015.3
20260507093317 12 178 0.0 0.0 0.00 0.00 0.00 87 1015.6
20260507092812 12 178 0.0 0.0 0.00 0.00 0.00 88 1015.6
20260507092307 12 178 0.0 0.0 0.00 0.00 0.00 88 1015.6
20260507091759 12 178 0.0 0.0 0.00 0.00 0.00 87 1015.6
20260507091253 12 178 0.0 0.0 0.00 0.00 0.00 87 1015.6
20260507090747 12 175 0.0 0.0 0.00 0.00 0.00 87 1015.6
20260507090729 12 175 0.0 0.0 0.00 0.00 0.00 88 1015.6
20260507090006 12 165 0.0 0.0 0.00 0.00 0.00 88 1015.6
20260507085229 12 176 0.0 0.0 0.00 0.00 0.00 88 1015.6
20260507084724 12 166 0.0 0.0 0.00 0.00 0.00 88 1015.9
20260507084217 12 198 0.0 0.0 0.00 0.00 0.00 87 1015.9
20260507083712 12 198 0.0 0.0 0.00 0.00 0.00 87 1015.9
20260507083432 12 171 0.0 0.0 0.00 0.00 0.00 87 1015.9
20260507082659 12 171 0.0 0.0 0.00 0.00 0.00 87 1016.0
20260507082153 12 174 0.0 0.0 0.00 0.00 0.00 87 1016.0
20260507081912 12 171 0.0 0.0 0.00 0.00 0.00 87 1016.1
20260507081141 12 169 0.0 0.0 0.00 0.00 0.00 87 1016.1
20260507080859 12 183 0.0 0.0 0.00 0.00 0.00 87 1016.2
20260507080130 12 186 0.0 0.0 0.00 0.00 0.00 87 1016.3
20260507075624 12 184 0.0 0.0 0.00 0.00 0.00 87 1016.3
20260507075118 12 198 0.0 0.0 0.00 0.00 0.00 87 1016.1
20260507074611 12 173 0.0 0.0 0.00 0.00 0.00 86 1016.3
20260507074105 12 173 0.0 0.0 0.00 0.00 0.00 86 1016.4
20260507073600 12 173 0.0 0.0 0.00 0.00 0.00 86 1016.4
20260507073053 12 173 0.0 0.0 0.00 0.00 0.00 86 1016.4
20260507073039 12 173 0.0 0.0 0.00 0.00 0.00 86 1016.4
20260507072042 12 170 0.0 0.0 0.00 0.00 0.00 86 1016.5
20260507071535 12 170 0.0 3.2 0.00 0.00 0.00 86 1016.4
20260507071514 12 184 0.0 3.2 0.00 0.00 0.00 86 1016.3
20260507070523 12 176 0.0 3.2 0.00 0.00 0.00 86 1016.4
20260507070015 12 184 0.0 3.2 0.00 0.00 0.00 85 1016.4
20260507065508 12 184 0.0 4.8 0.00 0.00 0.00 85 1016.4
20260507065002 12 171 0.0 4.8 0.00 0.00 0.00 84 1016.4
20260507064456 13 165 0.0 0.0 0.00 0.00 0.00 84 1016.3
20260507063950 13 153 0.0 0.0 0.00 0.00 0.00 84 1016.3
20260507063445 13 132 0.0 0.0 0.00 0.00 0.00 84 1016.3
20260507062938 13 189 0.0 0.0 0.00 0.00 0.00 84 1016.3
20260507062432 13 189 0.0 0.0 0.00 0.00 0.00 84 1016.4
20260507061926 13 189 0.0 0.0 0.00 0.00 0.00 83 1016.3
20260507061420 13 189 0.0 0.0 0.00 0.00 0.00 83 1016.4
20260507060914 13 189 0.0 0.0 0.00 0.00 0.00 83 1016.4
20260507060408 13 189 0.0 0.0 0.00 0.00 0.00 83 1016.4
20260507055903 13 189 0.0 0.0 0.00 0.00 0.00 83 1016.5
20260507055622 13 189 0.0 0.0 0.00 0.00 0.00 83 1016.4
20260507054850 13 189 0.0 0.0 0.00 0.00 0.00 83 1016.4
20260507054345 13 189 0.0 0.0 0.00 0.00 0.00 83 1016.5
20260507053838 13 189 0.0 0.0 0.00 0.00 0.00 83 1016.5
20260507053332 13 189 0.0 0.0 0.00 0.00 0.00 83 1016.4
20260507052827 13 189 0.0 0.0 0.00 0.00 0.00 83 1016.5
20260507052320 13 189 0.0 0.0 0.00 0.00 0.00 84 1016.5
20260507051814 13 189 0.0 0.0 0.00 0.00 0.00 84 1016.4
20260507051308 13 189 0.0 0.0 0.00 0.00 0.00 84 1016.5
20260507051035 13 189 0.0 0.0 0.00 0.00 0.00 84 1016.5
20260507050256 13 189 0.0 0.0 0.00 0.00 0.00 83 1016.3
20260507045750 13 189 0.0 0.0 0.00 0.00 0.00 83 1016.3
20260507045245 13 189 0.0 0.0 0.00 0.00 0.00 82 1016.3
20260507044738 13 189 0.0 0.0 0.00 0.00 0.00 82 1016.3
20260507044450 13 189 0.0 0.0 0.00 0.00 0.00 82 1016.3
20260507043726 13 189 0.0 0.0 0.00 0.00 0.00 82 1016.3
20260507043221 13 189 0.0 0.0 0.00 0.00 0.00 82 1016.3
20260507042940 13 189 0.0 0.0 0.00 0.00 0.00 82 1016.3
20260507042213 13 189 0.0 0.0 0.00 0.00 0.00 82 1016.3
20260507041702 13 189 0.0 0.0 0.00 0.00 0.00 81 1016.3
20260507041202 13 189 0.0 0.0 0.00 0.00 0.00 81 1016.2
20260507040650 13 231 0.0 0.0 0.00 0.00 0.00 80 1016.2
20260507040144 14 231 0.0 0.0 0.00 0.00 0.00 80 1016.3
20260507035905 14 231 0.0 0.0 0.00 0.00 0.00 79 1016.2
20260507035132 14 231 0.0 0.0 0.00 0.00 0.00 78 1016.1
20260507034626 14 231 0.0 0.0 0.00 0.00 0.00 78 1016.1
20260507034120 14 231 0.0 0.0 0.00 0.00 0.00 78 1016.1
20260507033614 14 231 0.0 0.0 0.00 0.00 0.00 78 1016.2
20260507033108 14 213 0.0 0.0 0.00 0.00 0.00 77 1016.1
20260507032602 15 213 0.0 1.6 0.00 0.00 0.00 77 1016.0
20260507032532 15 174 0.0 1.6 0.00 0.00 0.00 76 1015.9
20260507031550 15 174 0.0 1.6 0.00 0.00 0.00 75 1015.6
20260507031533 15 168 0.0 1.6 0.00 0.00 0.00 75 1015.5
20260507030539 15 234 0.0 0.0 0.00 0.00 0.00 74 1015.4
20260507030032 15 234 0.0 0.0 0.00 0.00 0.00 73 1015.4
20260507025526 15 234 0.0 4.8 0.00 0.00 0.00 72 1015.4
20260507025020 15 205 0.0 4.8 0.00 0.00 0.00 72 1015.4
20260507024514 16 229 0.0 4.8 0.00 0.00 0.00 71 1015.5
20260507024234 16 232 0.0 4.8 0.00 0.00 0.00 70 1015.4
20260507023503 16 240 0.0 4.8 0.00 0.00 0.00 69 1015.4
20260507022956 16 236 0.0 4.8 0.00 0.00 0.00 68 1015.4
20260507022452 16 207 0.0 4.8 0.00 0.00 0.00 68 1015.3
20260507021944 17 221 0.0 4.8 0.00 0.00 0.00 67 1015.2
20260507021440 17 219 0.0 4.8 0.00 0.00 0.00 66 1015.2
20260507020933 17 229 1.6 11.3 0.00 0.00 0.00 66 1015.3
20260507020651 17 225 1.6 11.3 0.00 0.00 0.00 65 1015.2
20260507020148 17 220 3.2 11.3 0.00 0.00 0.00 64 1015.1
20260507015414 18 222 3.2 11.3 0.00 0.00 0.00 64 1015.0
20260507015128 18 242 0.0 11.3 0.00 0.00 0.00 63 1014.9
20260507014630 18 251 0.0 11.3 0.00 0.00 0.00 63 1015.1
20260507013856 18 165 1.6 11.3 0.00 0.00 0.00 63 1015.1
20260507013351 18 227 3.2 12.9 0.00 0.00 0.00 64 1015.0
20260507013112 18 221 3.2 12.9 0.00 0.00 0.00 63 1015.1
20260507012338 18 247 3.2 12.9 0.00 0.00 0.00 62 1015.0
20260507012100 18 207 3.2 11.3 0.00 0.00 0.00 63 1014.9
20260507011326 18 227 3.2 12.9 0.00 0.00 0.00 64 1014.8
20260507010820 18 223 3.2 12.9 0.00 0.00 0.00 65 1014.9
20260507010315 18 230 4.8 16.1 0.00 0.00 0.00 65 1014.8
20260507005808 18 53 6.4 16.1 0.00 0.00 0.00 65 1014.9
20260507005305 18 240 6.4 16.1 0.00 0.00 0.00 65 1015.0
20260507004756 18 219 6.4 16.1 0.00 0.00 0.00 64 1015.0
20260507004250 19 251 6.4 16.1 0.00 0.00 0.00 63 1015.0
20260507004010 19 169 6.4 14.5 0.00 0.00 0.00 63 1015.0
20260507003239 19 202 6.4 16.1 0.00 0.00 0.00 62 1015.0
20260507002732 20 231 4.8 16.1 0.00 0.00 0.00 61 1014.9
20260507002226 20 152 3.2 12.9 0.00 0.00 0.00 61 1014.8
20260507001720 20 200 3.2 14.5 0.00 0.00 0.00 62 1014.8
20260507001214 20 229 4.8 14.5 0.00 0.00 0.00 61 1014.7
20260507000914 20 225 6.4 16.1 0.00 0.00 0.00 61 1014.5
20260507000759 20 240 4.8 14.5 0.00 0.00 0.00 62 1014.6
20260506235656 20 240 6.4 16.1 0.00 0.00 0.00 61 1014.6
20260506235150 20 246 6.4 16.1 0.00 0.00 0.00 61 1014.5
20260506234645 20 240 6.4 16.1 0.00 0.00 0.00 62 1014.5
20260506234138 20 243 3.2 16.1 0.00 0.00 0.00 61 1014.4
20260506234121 20 236 3.2 16.1 0.00 0.00 0.00 62 1014.5
20260506233126 20 133 4.8 16.1 0.00 0.00 0.00 61 1014.4
20260506232620 20 236 4.8 17.7 0.00 0.00 0.00 62 1014.5
20260506232115 20 254 3.2 17.7 0.00 0.00 0.00 62 1014.5
20260506231834 20 242 4.8 17.7 0.00 0.00 0.00 63 1014.5
20260506231102 20 271 4.8 19.3 0.00 0.00 0.00 62 1014.6
20260506230556 20 224 4.8 19.3 0.00 0.00 0.00 62 1014.7
20260506230050 20 219 6.4 19.3 0.00 0.00 0.00 63 1014.7
20260506225544 20 271 6.4 19.3 0.00 0.00 0.00 63 1014.7
20260506225521 20 242 6.4 20.9 0.00 0.00 0.00 61 1014.7
20260506224532 20 252 6.4 20.9 0.00 0.00 0.00 61 1014.8
20260506224027 20 246 6.4 19.3 0.00 0.00 0.00 61 1014.8
20260506223520 20 242 6.4 20.9 0.00 0.00 0.00 61 1014.7
20260506223237 20 224 8.0 20.9 0.00 0.00 0.00 60 1014.8
20260506222507 20 210 6.4 17.7 0.00 0.00 0.00 60 1014.9
20260506222002 20 266 6.4 17.7 0.00 0.00 0.00 61 1015.0
20260506221456 20 236 9.7 19.3 0.00 0.00 0.00 60 1014.9
20260506221212 20 312 6.4 19.3 0.00 0.00 0.00 60 1014.9
20260506220444 21 297 6.4 17.7 0.00 0.00 0.00 60 1014.9
20260506215939 21 259 6.4 19.3 0.00 0.00 0.00 59 1015.0
20260506215431 21 238 6.4 19.3 0.00 0.00 0.00 60 1015.0
20260506215152 21 271 6.4 20.9 0.00 0.00 0.00 59 1014.9
20260506214420 21 286 4.8 20.9 0.00 0.00 0.00 59 1015.0
20260506213914 21 250 4.8 19.3 0.00 0.00 0.00 58 1015.1
20260506213409 21 254 3.2 16.1 0.00 0.00 0.00 57 1015.2
20260506212902 21 294 3.2 16.1 0.00 0.00 0.00 59 1015.2
20260506212356 21 240 4.8 19.3 0.00 0.00 0.00 59 1015.2
20260506211850 20 323 6.4 19.3 0.00 0.00 0.00 59 1015.3
20260506211345 20 282 8.0 20.9 0.00 0.00 0.00 59 1015.5
20260506210840 20 259 6.4 20.9 0.00 0.00 0.00 59 1015.4
20260506210603 21 276 3.2 14.5 0.00 0.00 0.00 60 1015.4
20260506205841 20 340 3.2 14.5 0.00 0.00 0.00 60 1015.5
20260506205342 20 267 3.2 17.7 0.00 0.00 0.00 59 1015.6
20260506204842 20 275 4.8 17.7 0.00 0.00 0.00 59 1015.5
20260506204341 20 252 6.4 17.7 0.00 0.00 0.00 59 1015.5
20260506204104 20 198 6.4 17.7 0.00 0.00 0.00 61 1015.3
20260506203609 20 241 9.7 20.9 0.00 0.00 0.00 61 1015.4
20260506202842 20 227 11.3 20.9 0.00 0.00 0.00 60 1015.6
20260506202603 20 270 9.7 20.9 0.00 0.00 0.00 60 1015.8
20260506201843 20 248 8.0 20.9 0.00 0.00 0.00 59 1015.9
20260506201340 21 260 8.0 19.3 0.00 0.00 0.00 58 1015.9
20260506200838 21 251 6.4 19.3 0.00 0.00 0.00 58 1015.9
20260506200607 21 284 4.8 16.1 0.00 0.00 0.00 56 1016.0
20260506195837 21 279 3.2 14.5 0.00 0.00 0.00 53 1016.1
20260506195337 21 277 3.2 12.9 0.00 0.00 0.00 53 1016.1
20260506194836 20 280 1.6 12.9 0.00 0.00 0.00 54 1016.0
20260506194332 20 30 1.6 11.3 0.00 0.00 0.00 53 1016.2
20260506193834 21 271 1.6 9.7 0.00 0.00 0.00 51 1016.4
20260506193333 20 262 0.0 8.0 0.00 0.00 0.00 52 1016.4
20260506193058 20 9 0.0 8.0 0.00 0.00 0.00 50 1016.3
20260506192330 20 16 1.6 8.0 0.00 0.00 0.00 54 1016.5
20260506191836 20 225 1.6 6.4 0.00 0.00 0.00 52 1016.5
20260506191334 20 303 0.0 11.3 0.00 0.00 0.00 51 1016.5
20260506190829 20 0 0.0 11.3 0.00 0.00 0.00 53 1016.6
20260506190330 20 23 1.6 11.3 0.00 0.00 0.00 52 1016.7
20260506185830 20 300 1.6 11.3 0.00 0.00 0.00 52 1016.7
20260506185328 20 12 0.0 11.3 0.00 0.00 0.00 53 1016.6
20260506184826 19 250 0.0 6.4 0.00 0.00 0.00 54 1016.7
20260506184325 19 9 0.0 6.4 0.00 0.00 0.00 54 1016.8
20260506183826 19 300 0.0 8.0 0.00 0.00 0.00 55 1016.8
20260506183809 19 355 1.6 8.0 0.00 0.00 0.00 54 1016.8
20260506183052 18 0 1.6 8.0 0.00 0.00 0.00 56 1017.1
20260506182552 18 15 1.6 14.5 0.00 0.00 0.00 56 1017.1
20260506181825 18 13 1.6 14.5 0.00 0.00 0.00 56 1017.0
20260506181322 18 351 1.6 14.5 0.00 0.00 0.00 56 1017.0
20260506180824 18 211 1.6 14.5 0.00 0.00 0.00 56 1017.0
20260506180323 18 289 1.6 12.9 0.00 0.00 0.00 57 1017.1
20260506175823 18 269 1.6 11.3 0.00 0.00 0.00 57 1017.1
20260506175322 18 258 1.6 9.7 0.00 0.00 0.00 57 1017.0
20260506175052 18 285 1.6 9.7 0.00 0.00 0.00 58 1017.2
20260506174321 18 15 1.6 8.0 0.00 0.00 0.00 56 1017.3
20260506173820 18 43 0.0 6.4 0.00 0.00 0.00 57 1017.1
20260506173323 17 336 0.0 6.4 0.00 0.00 0.00 58 1017.1
20260506172816 17 0 1.6 6.4 0.00 0.00 0.00 59 1017.1
20260506172318 17 244 1.6 6.4 0.00 0.00 0.00 61 1017.1
20260506172041 17 260 1.6 6.4 0.00 0.00 0.00 61 1017.2
20260506171319 17 254 0.0 8.0 0.00 0.00 0.00 63 1017.2
20260506171038 17 303 0.0 8.0 0.00 0.00 0.00 64 1017.2
20260506170316 16 42 1.6 11.3 0.00 0.00 0.00 66 1017.2
20260506170036 16 266 1.6 11.3 0.00 0.00 0.00 66 1017.3
20260506165317 16 241 0.0 11.3 0.00 0.00 0.00 68 1017.2
20260506164823 16 277 0.0 11.3 0.00 0.00 0.00 70 1017.3
20260506164313 16 281 0.0 6.4 0.00 0.00 0.00 70 1017.2
20260506163814 16 311 1.6 6.4 0.00 0.00 0.00 69 1017.2
20260506163804 16 279 1.6 6.4 0.00 0.00 0.00 67 1017.3
20260506162815 16 9 1.6 6.4 0.00 0.00 0.00 68 1017.3
20260506162313 16 261 0.0 6.4 0.00 0.00 0.00 68 1017.2